Weather History for Bloomington, IL

Change the Weather History Date:

Saturday, December 15, 2012

  Actual Average Record
Temperature  
Mean Temperature 44 °F -  
Max Temperature 50 °F 43 °F 55 °F (2011)
Min Temperature 39 °F 28 °F 2 °F (2010)
Degree Days  
Heating Degree Days 20    
Moisture  
Dew Point 43 °F    
Average Humidity 92    
Maximum Humidity 100    
Minimum Humidity 70    
Precipitation  
Precipitation 0.31 in - - ()
Sea Level Pressure  
Sea Level Pressure 29.74 in    
Wind  
Wind Speed 18 mph (South)    
Max Wind Speed 26 mph    
Max Gust Speed 34 mph    
Visibility 6 miles    
Events Rain    
Averages and records for this station are not official NWS values.
T = Trace of Precipitation, MM = Missing Value Source: NWS Daily Summary

Daily Weather History Graph

Daily Weather History Graph

Search for Another Location

Airport:

Trip Planner

Search our weather history database for the weather conditions in past years. The results will help you decide how hot, cold, wet, or windy it might be!

Date:

Astronomy

Dec. 15, 2012 Rise Set
Actual Time 7:12 AM CST 4:30 PM CST
Civil Twilight 6:41 AM CST 5:00 PM CST
Nautical Twilight 6:07 AM CST 5:35 PM CST
Astronomical Twilight 5:33 AM CST 6:08 PM CST
Moon 9:04 AM CST (12/15) 7:34 PM CST (12/15)
Length of Visible Light 10h 19m
Length of Day
9h 17m
Waxing Crescent, 8% of the Moon is Illuminated
Dec 15
Waxing Crescent
Dec 19
First Quarter
Dec 28
Full
Jan 4
Last Quarter
Jan 11
New

Hourly Weather History & Observations

Time (CST) Temp. Windchill Dew Point Humidity Pressure Visibility Wind Dir Wind Speed Gust Speed Precip Events Conditions
12:56 AM 41.9 °F 34.3 °F 32.9 °F 70% 30.01 in 10.0 mi South 15.0 mph - N/A   Partly Cloudy
1:56 AM 41.0 °F 33.5 °F 32.9 °F 73% 29.98 in 10.0 mi SSE 13.8 mph - N/A   Scattered Clouds
2:56 AM 41.9 °F 35.0 °F 32.9 °F 70% 29.96 in 10.0 mi SSE 12.7 mph - N/A   Partly Cloudy
3:56 AM 41.0 °F 33.5 °F 34.0 °F 76% 29.96 in 10.0 mi SSE 13.8 mph - 0.00 in Rain Light Rain
4:25 AM 39.2 °F 31.2 °F 35.6 °F 87% 29.92 in 5.0 mi SSE 13.8 mph - 0.01 in Rain Light Rain
4:56 AM 39.9 °F 31.1 °F 36.0 °F 86% 29.91 in 9.0 mi SE 17.3 mph - 0.03 in Rain Light Rain
5:56 AM 39.9 °F 30.5 °F 36.9 °F 89% 29.88 in 6.0 mi SSE 19.6 mph - 0.01 in Rain Light Rain
6:08 AM 39.2 °F 29.6 °F 37.4 °F 93% 29.84 in 4.0 mi SSE 19.6 mph - 0.03 in Rain Light Rain
6:23 AM 41.0 °F 31.6 °F 37.4 °F 87% 29.83 in 2.5 mi SSE 20.7 mph - 0.08 in Rain Light Rain
6:44 AM 41.0 °F 31.9 °F 39.2 °F 93% 29.84 in 2.0 mi SSE 19.6 mph 27.6 mph 0.18 in Rain Light Rain
6:56 AM 41.0 °F 30.9 °F 39.9 °F 96% 29.82 in 2.5 mi SE 24.2 mph 28.8 mph 0.20 in Rain Light Rain
7:56 AM 41.9 °F 31.9 °F 41.9 °F 100% 29.81 in - SSE 25.3 mph 34.5 mph 0.01 in   Overcast
8:04 AM 42.8 °F 33.5 °F 42.8 °F 100% 29.76 in 6.0 mi SSE 23.0 mph 34.5 mph 0.00 in Rain Light Rain
8:18 AM 42.8 °F 32.9 °F 42.8 °F 100% 29.76 in 1.5 mi SSE 26.5 mph 33.4 mph 0.01 in Rain Light Rain
8:25 AM 42.8 °F 33.3 °F 42.8 °F 100% 29.76 in 1.5 mi SSE 24.2 mph 33.4 mph 0.01 in Rain Light Rain
8:33 AM 42.8 °F 32.9 °F 42.8 °F 100% 29.76 in 1.5 mi SSE 26.5 mph 34.5 mph 0.03 in Rain Light Rain
8:56 AM 43.0 °F 33.8 °F 43.0 °F 100% 29.77 in 1.5 mi SSE 23.0 mph 32.2 mph 0.03 in Rain Light Rain
9:56 AM 43.9 °F 35.4 °F 43.9 °F 100% 29.77 in 1.2 mi South 20.7 mph 28.8 mph 0.00 in Rain Light Rain
10:56 AM 45.0 °F 36.2 °F 45.0 °F 100% 29.73 in 1.5 mi South 24.2 mph - 0.01 in Rain Light Rain
11:56 AM 45.9 °F 37.6 °F 45.9 °F 100% 29.68 in 1.5 mi South 23.0 mph - 0.00 in   Overcast
12:00 PM 46.4 °F 38.5 °F 46.4 °F 100% 29.66 in 4.0 mi South 21.9 mph - N/A   Overcast
12:56 PM 46.9 °F - 46.9 °F 100% 29.65 in 6.0 mi South 19.6 mph 27.6 mph 0.00 in Rain Light Rain
1:19 PM 46.4 °F 39.0 °F 46.4 °F 100% 29.61 in 1.8 mi South 19.6 mph - 0.00 in Rain Light Rain
1:56 PM 47.8 °F - 47.8 °F 100% 29.61 in 1.2 mi South 18.4 mph - 0.01 in Rain Light Rain
2:56 PM 48.9 °F - 48.9 °F 100% 29.61 in 1.5 mi SSW 12.7 mph - 0.01 in Rain Light Rain
3:04 PM 48.2 °F - 48.2 °F 100% 29.59 in 4.0 mi SSW 19.6 mph 23.0 mph 0.00 in Rain Light Rain
3:15 PM 50.0 °F - 48.2 °F 94% 29.59 in 10.0 mi SSW 16.1 mph - 0.00 in   Mostly Cloudy
3:56 PM 50.0 °F - 47.8 °F 92% 29.61 in 10.0 mi SSW 19.6 mph - 0.00 in   Mostly Cloudy
3:58 PM 50.0 °F - 48.2 °F 94% 29.59 in 10.0 mi SSW 18.4 mph - N/A   Overcast
4:56 PM 50.9 °F - 47.8 °F 89% 29.63 in 10.0 mi SW 15.0 mph - N/A   Overcast
6:56 PM 50.9 °F - 47.8 °F 89% 29.66 in 10.0 mi SW 13.8 mph - N/A   Overcast
7:56 PM 50.9 °F - 46.9 °F 86% 29.66 in 10.0 mi SW 16.1 mph - N/A   Overcast
8:56 PM 50.0 °F - 45.9 °F 86% 29.67 in 10.0 mi SW 11.5 mph - N/A   Overcast
9:56 PM 50.0 °F - 45.9 °F 86% 29.66 in 10.0 mi SW 9.2 mph - N/A   Overcast
10:56 PM 50.0 °F - 45.0 °F 83% 29.66 in 10.0 mi SW 11.5 mph - N/A   Overcast
11:34 PM 50.0 °F - 44.6 °F 82% 29.65 in 10.0 mi SW 12.7 mph - N/A   Overcast
11:56 PM 48.9 °F - 45.9 °F 89% 29.66 in 10.0 mi SW 13.8 mph - N/A   Overcast